| time (UTC) | temp F | wind direction | speed knots | gust knots | rain 1hr in | rain 24hr in | rain mn in | humidity % | barometer mb |
| 20260504173017 | 69 | 74 | 8.7 | 17.4 | 0.00 | 0.00 | 0.00 | 31 | 1008.5 |
| 20260504171519 | 68 | 276 | 4.3 | 13.9 | 0.00 | 0.00 | 0.00 | 30 | 1008.3 |
| 20260504081518 | 41 | 231 | 0.0 | 0.0 | 0.00 | 0.00 | 0.00 | 70 | 1011.3 |
| 20260504050012 | 43 | 345 | 0.9 | 1.7 | 0.00 | 0.00 | 0.00 | 59 | 1011.5 |
| 20260504044526 | 42 | 103 | 0.0 | 0.9 | 0.00 | 0.00 | 0.00 | 62 | 1011.6 |
| 20260504043029 | 42 | 108 | 0.0 | 0.0 | 0.00 | 0.00 | 0.00 | 62 | 1011.5 |
| 20260504041524 | 42 | 108 | 0.0 | 0.0 | 0.00 | 0.00 | 0.00 | 59 | 1011.4 |
| 20260504040027 | 41 | 108 | 0.0 | 0.0 | 0.00 | 0.00 | 0.00 | 63 | 1011.4 |
| 20260504034511 | 41 | 108 | 0.0 | 0.0 | 0.00 | 0.00 | 0.00 | 59 | 1011.2 |
| 20260504033027 | 41 | 108 | 0.0 | 0.0 | 0.00 | 0.00 | 0.00 | 61 | 1011.0 |
| 20260504031521 | 41 | 109 | 0.0 | 0.0 | 0.00 | 0.00 | 0.00 | 62 | 1011.0 |
| 20260504030026 | 42 | 109 | 0.0 | 0.0 | 0.00 | 0.00 | 0.00 | 59 | 1010.9 |
| 20260504024528 | 42 | 110 | 0.0 | 1.7 | 0.00 | 0.00 | 0.00 | 56 | 1011.0 |
| 20260504023015 | 43 | 106 | 0.0 | 2.6 | 0.00 | 0.00 | 0.00 | 57 | 1011.0 |
| 20260504021520 | 45 | 94 | 0.0 | 1.7 | 0.00 | 0.00 | 0.00 | 51 | 1010.9 |
| 20260504020020 | 47 | 320 | 0.0 | 2.6 | 0.00 | 0.00 | 0.00 | 50 | 1010.8 |
| 20260504014534 | 47 | 286 | 0.0 | 3.5 | 0.00 | 0.00 | 0.00 | 44 | 1010.7 |
| 20260504013030 | 47 | 122 | 0.0 | 1.7 | 0.00 | 0.00 | 0.00 | 47 | 1010.6 |
| 20260504011514 | 47 | 309 | 0.0 | 0.9 | 0.00 | 0.00 | 0.00 | 40 | 1010.4 |
| 20260504010017 | 47 | 312 | 0.0 | 1.7 | 0.00 | 0.00 | 0.00 | 45 | 1010.2 |
| 20260504004524 | 48 | 259 | 0.0 | 0.0 | 0.00 | 0.00 | 0.00 | 38 | 1010.0 |
| 20260504003025 | 49 | 309 | 0.0 | 3.5 | 0.00 | 0.00 | 0.00 | 38 | 1009.8 |
| 20260504001525 | 49 | 309 | 0.9 | 4.3 | 0.00 | 0.00 | 0.00 | 38 | 1009.7 |
| 20260504000017 | 50 | 283 | 0.0 | 0.9 | 0.00 | 0.00 | 0.00 | 43 | 1009.4 |
| 20260503234521 | 51 | 323 | 0.0 | 0.0 | 0.00 | 0.00 | 0.00 | 37 | 1009.3 |
| 20260503233021 | 54 | 314 | 2.6 | 3.5 | 0.00 | 0.00 | 0.00 | 33 | 1009.2 |
| 20260503231525 | 54 | 336 | 0.9 | 6.1 | 0.00 | 0.00 | 0.00 | 34 | 1009.1 |
| 20260503230025 | 54 | 341 | 1.7 | 8.7 | 0.00 | 0.00 | 0.00 | 33 | 1009.1 |
| 20260503224517 | 54 | 17 | 4.3 | 10.4 | 0.00 | 0.00 | 0.00 | 33 | 1009.0 |
| 20260503223027 | 54 | 341 | 3.5 | 11.3 | 0.00 | 0.00 | 0.00 | 33 | 1009.0 |
| 20260503221524 | 53 | 17 | 3.5 | 9.6 | 0.00 | 0.00 | 0.00 | 35 | 1009.0 |
| 20260503220026 | 54 | 94 | 2.6 | 8.7 | 0.00 | 0.00 | 0.00 | 36 | 1009.1 |
| 20260503214540 | 54 | 353 | 7.8 | 15.6 | 0.00 | 0.00 | 0.00 | 33 | 1009.1 |
| 20260503213017 | 53 | 328 | 4.3 | 20.0 | 0.00 | 0.00 | 0.00 | 36 | 1009.0 |
| 20260503211523 | 52 | 304 | 7.0 | 17.4 | 0.00 | 0.00 | 0.00 | 35 | 1008.9 |
| 20260503210024 | 51 | 327 | 5.2 | 13.9 | 0.00 | 0.00 | 0.00 | 37 | 1008.8 |
| 20260503204530 | 52 | 317 | 8.7 | 16.5 | 0.00 | 0.00 | 0.00 | 34 | 1008.7 |
| 20260503203025 | 51 | 303 | 9.6 | 18.2 | 0.00 | 0.00 | 0.00 | 35 | 1008.7 |
| 20260503201528 | 51 | 340 | 7.8 | 20.9 | 0.00 | 0.00 | 0.00 | 36 | 1008.5 |
| 20260503200032 | 51 | 351 | 9.6 | 14.8 | 0.00 | 0.00 | 0.00 | 36 | 1008.7 |
| 20260503194526 | 52 | 325 | 7.0 | 17.4 | 0.00 | 0.00 | 0.00 | 36 | 1008.7 |
| 20260503193033 | 52 | 15 | 7.8 | 14.8 | 0.00 | 0.00 | 0.00 | 37 | 1008.6 |
| 20260503191525 | 51 | 354 | 10.4 | 23.5 | 0.00 | 0.00 | 0.00 | 34 | 1008.6 |
| 20260503190021 | 51 | 337 | 9.6 | 17.4 | 0.00 | 0.00 | 0.00 | 35 | 1008.6 |
| 20260503184530 | 51 | 1 | 9.6 | 17.4 | 0.00 | 0.00 | 0.00 | 37 | 1008.7 |
| 20260503183028 | 51 | 326 | 8.7 | 15.6 | 0.00 | 0.00 | 0.00 | 38 | 1008.7 |
| 20260503181527 | 52 | 301 | 9.6 | 20.0 | 0.00 | 0.00 | 0.00 | 37 | 1008.6 |
| 20260503180031 | 51 | 8 | 9.6 | 23.5 | 0.00 | 0.00 | 0.00 | 39 | 1008.7 |
| 20260503174526 | 51 | 316 | 8.7 | 17.4 | 0.00 | 0.00 | 0.00 | 39 | 1008.5 |